Miscellaneous Local Product
Issued by NWS Hastings, NE

Home | Current Version | Previous Version | Graphics & Text | Print | Product List | Glossary On
Versions: 1 2 3 4 5 6 7 8 9 10 11 12 13 14 15 16 17 18 19 20 21 22 23 24 25 26 27 28 29 30 31 32 33 34 35 36 37 38 39 40 41 42 43 44 45 46 47 48 49 50
000
AXUS43 KGID 022302
MISGRI

GID CWA HOURLY WEATHER ROUNDUP
NATIONAL WEATHER SERVICE HASTINGS NE
600 PM CDT SUN AUG 02 2015

NOTE: "FAIR" INDICATES FEW OR NO CLOUDS BELOW 12,000 FEET WITH NO
SIGNIFICANT WEATHER AND/OR OBSTRUCTIONS TO VISIBILITY.

...SOUTH CENTRAL NEBRASKA...

CITY           SKY/WX    TMP DP  RH WIND       PRES   REMARKS
GRAND ISLAND   CLOUDY    85  73  67 SW6       29.86S HX  91
HASTINGS       CLOUDY    87  76  69 CALM      29.86S HX  97
KEARNEY        CLOUDY    88  50  27 N12       29.91R
ORD            PTSUNNY   81  72  74 W10       29.88R
YORK           CLOUDY    84  79  84 CALM      29.84F HX  96
AURORA         CLOUDY    86  74  68 SW3       29.86R HX  93
LEXINGTON      CLOUDY    82  56  40 SW10      29.94R
HOLDREGE       CLOUDY    88  61  40 S6        29.89S THUNDER
HEBRON         MOSUNNY   91  65  41 SW5       29.84S HX  92

...NEBRASKA PANHANDLE...

CITY           SKY/WX    TMP DP  RH WIND       PRES   REMARKS
CHADRON        SUNNY     92  56  29 NE15G22   29.93F HX  90
ALLIANCE       MOSUNNY   93  49  22 W10       29.96F HX  90
SCOTTSBLUFF    MOSUNNY   91  51  25 E12       29.97R
SIDNEY         CLOUDY    87  47  24 S12       30.02R

...WESTERN AND NORTH CENTRAL NEBRASKA...

CITY           SKY/WX    TMP DP  RH WIND       PRES   REMARKS
VALENTINE      NOT AVBL
AINSWORTH      SUNNY     87  63  44 E7        29.93F
ONEILL         SUNNY     87  62  43 NE9       29.90R
BROKEN BOW     CLOUDY    83  60  45 SE8       29.93R
IMPERIAL       CLOUDY    94  54  25 E9        29.92S HX  92
NORTH PLATTE   LGT RAIN  79  55  43 W12G17    29.94R
MCCOOK         PTSUNNY   86  54  33 NE28G39   29.90R

...EASTERN NEBRASKA...

CITY           SKY/WX    TMP DP  RH WIND       PRES   REMARKS
NORFOLK        SUNNY     91  61  36 N10       29.84R HX  91
TEKAMAH        SUNNY     91  76  61 NW7       29.80S HX 103
COLUMBUS       MOSUNNY   90  73  58 N7        29.81S HX  98
ALBION         MOSUNNY   88  69  52 NE9       29.86R HX  92
OMAHA EPPLEY   MOSUNNY   91  76  61 N14       29.78S HX 103
MILLARD        MOSUNNY   93  75  55 SW9       29.79S HX 104
LINCOLN        MOSUNNY   92  73  53 SW10      29.81F HX 100
NEBRASKA CITY  SUNNY     89  70  53 SW9       29.82F HX  95
BEATRICE       MOSUNNY   93  71  48 W5        29.84S HX  99
FALLS CITY     SUNNY     89  74  60 SW9       29.82F HX  98

...NORTHERN KANSAS...

CITY           SKY/WX    TMP DP  RH WIND       PRES   REMARKS
GOODLAND       MOSUNNY   95  47  19 SE8       29.95F HX  91
HILL CITY      SUNNY     96  59  29 S5        29.87F HX  95
NORTON         CLEAR     93  48  21 SE3       29.87S HX  90
PHILLIPSBURG   SUNNY     99  61  28 CALM      29.86S HX  99
SMITH CENTER   SUNNY     95  61  31 SE7       29.86S HX  95
HAYS           SUNNY     95  63  34 S10       29.87S HX  96
RUSSELL        MOSUNNY   95  64  35 S7        29.85S HX  97
CONCORDIA      MOSUNNY   92  66  42 S9        29.83F HX  94
SALINA         SUNNY     94  69  44 S12       29.85S HX  99
TOPEKA         SUNNY     92  70  48 SW8       29.84F HX  97



USA.gov is the U.S. government's official web portal to all federal, state and local government web resources and services.